User: anonymous   Login
Location: Boitzum
(52.1496°N, 9.6943°E)
Time: 05:28:21
(UTC+00:00)
Language:

Cosmos 2184 Rocket - Orbit

View from above orbital plane
View from above orbital plane
View from above satellite
View from above satellite

Ground track
Ground track

The orbit is defined by the following mean orbital elements,

1 21938U          26067.75700889 +.00000000 +00000-0 +75403-4 0 00004
2 21938  82.9338 154.4539 0027711 301.5290 171.0461 13.75549389    01
Epoch (UTC): 08 March 2026 18:10:05
Eccentricity: 0.0027711
inclination: 82.9338°
perigee height: 959 km
apogee height: 1000 km
right ascension of ascending node: 154.4539°
argument of perigee: 301.5290°
revolutions per day: 13.75549389
mean anomaly at epoch: 171.0461°

The dashed part of the orbit path shows where the satellite is in the earth's shadow,  

DLR